CAPE
0 0 0 0 0 0 0 0 0 0 0 0 1 11 6 0 0 0 0 0 0 0 1 303 986 799 338 66 29 46 74 116 140 189 5 0 0 0 0 0 0 0 0
11 0 0 0 0 0 0 0 0 0 0 0 0 0 0 0 0 0 0 0 0 0 0 46 634 887 626 296 212 180 218 243 249 93 0 0 0 0 0 0 0 0 0
79 0 0 0 0 0 0 0 0 0 0 0 0 0 0 0 0 0 0 0 0 0 0 0 58 50 65 191 239 181 225 336 219 44 0 0 0 0 0 0 0 0 0
128 78 0 0 0 0 0 0 0 0 0 0 0 0 0 0 0 0 0 0 0 0 0 0 0 0 0 102 229 258 197 265 121 0 0 0 0 0 0 0 0 0 0
147 93 0 0 0 0 0 0 0 0 0 0 0 0 0 0 0 0 0 0 0 0 0 0 0 0 0 1 238 443 475 247 8 0 0 0 0 0 0 0 0 0 0
108 139 0 0 0 0 0 0 0 0 0 0 0 0 0 0 0 0 0 0 0 0 0 0 0 0 0 0 30 408 391 199 4 0 0 0 0 0 0 0 0 0 0
312 155 0 0 8 0 0 0 0 0 0 0 0 0 0 0 0 0 0 0 0 0 0 81 64 73 47 0 0 177 293 245 102 0 0 0 0 0 0 0 0 0 0
522 355 91 1 13 0 0 0 0 0 0 0 0 0 0 0 9 24 0 0 4 24 58 227 254 267 304 336 184 53 193 213 165 15 0 0 0 0 0 0 0 0 0
604 479 253 75 8 12 0 14 6 0 0 0 0 0 0 38 114 198 535 319 216 244 268 234 327 447 481 516 480 275 141 125 110 47 0 0 0 0 0 0 0 0 0
561 505 433 249 127 43 11 16 26 10 7 0 40 38 33 14 58 36 312 611 733 707 730 755 546 615 697 628 634 542 310 102 24 28 0 0 0 0 0 0 0 0 0
460 455 420 393 301 183 61 42 36 50 8 10 3 93 108 126 208 227 136 160 255 550 593 864 996 953 960 906 853 792 280 77 23 3 0 0 0 0 0 0 0 0 0
194 228 277 296 299 218 133 77 66 69 73 28 32 16 69 171 243 256 293 374 378 525 556 686 455 492 783 949 909 516 255 73 0 0 0 0 0 0 0 0 0 0 0
105 142 156 253 252 251 170 129 92 82 95 91 80 46 46 125 203 248 459 672 469 571 355 200 136 48 266 510 669 529 203 11 0 0 0 0 0 0 0 0 0 0 0
449 339 230 191 133 141 158 184 136 134 151 172 157 244 331 525 680 615 676 699 636 464 240 169 62 95 149 149 163 92 49 0 0 0 0 0 0 0 0 0 0 0 0
773 821 679 499 427 319 203 166 135 166 222 415 526 658 833 838 835 665 544 492 443 268 308 278 255 181 48 6 9 0 0 0 0 0 0 0 0 0 0 0 0 0 0
1282 1123 1038 1037 1008 730 546 359 385 471 767 704 792 891 888 935 723 565 413 371 366 318 181 221 215 207 24 0 0 0 0 0 0 0 0 0 0 0 0 0 0 0 0
107 752 1043 1223 1185 1251 1167 960 711 1046 1187 997 640 810 740 516 343 474 421 328 216 412 192 175 145 308 313 40 0 0 2 2 1 0 0 0 1 0 0 0 0 0 0
0 0 0 41 51 78 148 271 465 339 291 569 619 759 358 244 226 85 92 278 298 203 102 83 73 214 246 22 3 2 1 2 2 0 0 0 0 0 0 0 0 0 0
0 0 0 0 0 1 0 53 153 282 280 206 180 181 84 40 4 0 0 186 306 361 294 233 271 49 4 2 4 4 3 2 2 1 0 0 0 0 0 0 0 0 0
0 0 0 0 0 0 0 0 0 1 8 107 334 305 136 71 0 0 45 197 408 402 463 368 276 12 0 6 4 1 4 2 2 1 1 1 0 0 0 0 0 0 0
0 0 0 0 0 0 0 0 0 0 0 0 0 2 16 60 29 82 460 549 462 509 392 296 92 0 0 1 0 4 6 7 6 3 2 2 1 2 1 3 1 0 0
0 0 0 0 0 0 0 0 0 0 0 0 0 0 0 0 0 0 0 9 85 274 390 300 171 0 0 0 4 3 4 7 6 3 2 3 1 1 2 2 1 0 0
0 0 0 0 0 0 0 0 0 0 0 0 0 0 0 0 0 0 1 0 0 0 0 121 151 25 23 0 2 5 4 4 3 6 2 1 1 2 2 2 1 0 0
0 0 0 0 0 0 0 0 0 0 0 0 0 0 0 0 0 0 0 1 3 1 0 0 1 20 7 0 0 0 5 7 2 3 0 2 2 1 1 1 1 0 1
0 0 0 0 0 0 0 0 0 0 0 0 0 0 0 0 0 0 0 0 0 0 1 2 1 2 1 0 0 3 3 5 6 5 0 3 2 2 1 1 0 0 1
1 2 0 0 0 0 0 0 0 0 0 0 0 0 0 0 0 0 0 0 0 0 0 1 3 2 1 0 0 0 4 1 2 4 0 0 3 0 1 1 0 3 5
CIN
-0 -0 -0 -0 -0 -0 -0 -0 -0 -0 -0 -0 -218 -301 -171 -0 -0 -0 -0 -0 -0 -0 -107 -69 -12 -18 -47 -117 -139 -117 -94 -68 -55 -43 -22 -0 -0 -0 -0 -0 -0 -0 -0
-336 -0 -0 -0 -0 -0 -0 -0 -0 -0 -0 -0 -0 -0 -0 -0 -0 -0 -0 -0 -0 -0 -0 -172 -30 -13 -19 -41 -59 -64 -53 -46 -44 -69 -0 -0 -0 -0 -0 -0 -0 -0 -0
-322 -0 -0 -0 -0 -0 -0 -0 -0 -0 -0 -0 -0 -0 -0 -0 -0 -0 -0 -0 -0 -0 -0 -20 -163 -141 -98 -44 -37 -60 -60 -28 -46 -115 -0 -0 -0 -0 -0 -0 -0 -0 -0
-346 -325 -0 -0 -0 -0 -0 -0 -0 -0 -0 -0 -0 -0 -0 -0 -0 -0 -0 -0 -0 -0 -0 -0 -0 -0 -0 -80 -50 -49 -65 -60 -94 -0 -0 -0 -0 -0 -0 -0 -0 -0 -0
-373 -357 -0 -0 -0 -0 -0 -0 -0 -0 -0 -0 -0 -0 -0 -0 -0 -0 -0 -0 -0 -0 -0 -0 -0 -0 -0 -110 -60 -32 -37 -73 -126 -0 -0 -0 -0 -0 -0 -0 -0 -0 -0
-405 -380 -0 -0 -0 -0 -0 -0 -0 -0 -0 -0 -0 -0 -0 -0 -0 -0 -0 -0 -0 -0 -0 -0 -0 -0 -0 -0 -51 -54 -54 -97 -146 -0 -0 -0 -0 -0 -0 -0 -0 -0 -0
-354 -400 -0 -0 -394 -0 -0 -0 -0 -0 -0 -0 -0 -0 -0 -0 -0 -0 -0 -0 -0 -0 -0 -135 -133 -109 -128 -0 -0 -132 -95 -96 -156 -0 -0 -0 -0 -0 -0 -0 -0 -0 -0
-318 -356 -414 -114 -426 -0 -0 -0 -0 -0 -0 -0 -0 -0 -0 -0 -130 -42 -0 -0 -55 -168 -177 -116 -107 -96 -68 -47 -149 -273 -179 -140 -135 -259 -0 -0 -0 -0 -0 -0 -0 -0 -0
-265 -301 -362 -392 -430 -434 -0 -394 -375 -0 -0 -0 -0 -0 -0 -109 -58 -65 -69 -105 -109 -110 -107 -90 -82 -75 -54 -52 -47 -136 -227 -243 -218 -244 -0 -0 -0 -0 -0 -0 -0 -0 -0
-312 -300 -308 -343 -365 -416 -401 -388 -369 -376 -324 -0 -244 -261 -192 -151 -99 -106 -45 -52 -45 -58 -59 -63 -70 -58 -58 -51 -54 -62 -142 -274 -326 -309 -14 -0 -0 -0 -0 -0 -0 -0 -0
-331 -335 -320 -302 -313 -342 -391 -376 -375 -362 -339 -294 -231 -174 -180 -157 -119 -94 -130 -93 -51 -49 -62 -45 -24 -17 -8 -16 -21 -46 -137 -296 -374 -383 -0 -0 -0 -0 -0 -0 -0 -0 -0
-312 -334 -312 -282 -276 -295 -342 -372 -359 -333 -343 -291 -250 -225 -186 -135 -125 -59 -61 -73 -46 -39 -27 -52 -95 -59 -3 -12 -17 -80 -132 -248 -0 -0 -0 -0 -0 -0 -0 -0 -0 -0 -0
-347 -372 -331 -280 -287 -309 -340 -338 -323 -329 -306 -293 -239 -215 -171 -121 -122 -72 -6 -32 -13 -8 -56 -182 -249 -225 -84 -80 -75 -66 -128 -309 -0 -0 -0 -0 -0 -0 -0 -0 -0 -0 -0
-168 -228 -302 -311 -344 -330 -345 -289 -297 -297 -270 -239 -229 -157 -84 -43 -19 -23 -22 -0 -0 -3 -68 -174 -302 -306 -115 -114 -154 -181 -124 -0 -0 -0 -0 -0 -0 -0 -0 -0 -0 -0 -0
-106 -121 -163 -206 -239 -272 -300 -311 -289 -265 -232 -191 -129 -68 -8 -9 -1 -12 -41 -28 -8 -17 -27 -62 -75 -121 -162 -145 -180 -0 -0 -0 -0 -0 -0 -0 -0 -0 -0 -0 -0 -0 -0
-48 -63 -75 -74 -74 -121 -164 -193 -172 -134 -75 -85 -88 -39 -23 -18 -28 -47 -89 -67 -26 -1 -1 -77 -107 -91 -162 -0 -0 -0 -0 -0 -0 -0 -0 -0 -0 -0 -0 -0 -0 -0 -0
-401 -101 -47 -25 -21 -21 -25 -38 -67 -12 -2 -13 -88 -75 -97 -144 -175 -79 -50 -72 -55 -24 -45 -51 -115 -110 -57 -215 -0 -0 -0 -0 -0 -0 -0 -0 -0 -0 -0 -0 -0 -0 -0
-0 -0 -7 -393 -365 -332 -248 -152 -72 -83 -102 -53 -48 -23 -85 -116 -122 -121 -135 -22 -48 -98 -107 -28 -123 -112 -60 -213 -0 -0 -0 -0 -0 -0 -0 -0 -0 -0 -0 -0 -0 -0 -0
-0 -0 -0 -0 -0 -0 -0 -287 -153 -74 -65 -108 -134 -128 -214 -235 -304 -84 -73 -52 -11 -27 -16 -4 -40 -142 -63 -0 -0 -0 -0 -0 -0 -0 -0 -0 -0 -0 -0 -0 -0 -0 -0
-0 -0 -0 -0 -0 -0 -0 -0 -0 -0 -151 -174 -60 -42 -106 -120 -0 -0 -147 -30 -9 -29 -7 -0 -0 -97 -0 -0 -0 -0 -0 -0 -0 -0 -0 -0 -0 -0 -0 -0 -0 -0 -0
-0 -0 -0 -0 -0 -0 -0 -0 -0 -0 -0 -0 -0 -129 -265 -165 -215 -141 -24 -24 -54 -5 -0 -8 -43 -0 -0 -0 -0 -0 -0 -0 -0 -0 -0 -0 -0 -0 -0 -0 -0 -0 -0
-0 -0 -0 -0 -0 -0 -0 -0 -0 -0 -0 -0 -0 -0 -0 -0 -0 -0 -0 -267 -147 -35 -26 -12 -45 -2 -1 -0 -0 -0 -0 -0 -0 -0 -0 -0 -0 -0 -0 -0 -0 -0 -0
-0 -0 -0 -0 -0 -0 -0 -0 -0 -0 -0 -0 -0 -0 -0 -0 -0 -0 -0 -0 -0 -0 -0 -38 -41 -156 -131 -0 -0 -0 -0 -0 -0 -0 -0 -0 -0 -0 -0 -0 -0 -0 -0
-0 -0 -0 -0 -0 -0 -0 -0 -0 -0 -0 -0 -0 -0 -0 -0 -0 -0 -0 -0 -0 -0 -0 -0 -0 -126 -103 -0 -0 -0 -0 -0 -0 -0 -0 -0 -0 -0 -0 -0 -0 -0 -0
-0 -0 -0 -0 -0 -0 -0 -0 -0 -0 -0 -0 -0 -0 -0 -0 -0 -0 -0 -0 -0 -0 -0 -0 -0 -0 -0 -0 -0 -0 -0 -0 -0 -0 -0 -0 -0 -0 -0 -0 -0 -0 -0
-0 -0 -0 -0 -0 -0 -0 -0 -0 -0 -0 -0 -0 -0 -0 -0 -0 -0 -0 -0 -0 -0 -0 -0 -0 -0 -0 -0 -0 -0 -0 -0 -0 -0 -0 -0 -0 -0 -0 -0 -0 -0 -0
Wind_Speed
14 13 12 12 13 11 11 10 10 10 9 7 4 0 2 6 9 10 10 6 1 3 3 2 2 3 3 3 3 3 3 3 3 5 6 7 9 10 12 12 15 17 19
12 13 11 10 9 8 9 8 5 2 2 2 2 3 5 9 9 10 11 13 5 2 2 2 2 2 2 3 2 3 3 3 2 3 4 6 7 9 11 13 15 18 19
10 12 11 9 8 5 4 2 2 4 5 6 9 9 10 12 14 13 13 15 10 4 3 4 4 3 1 2 2 3 3 3 2 2 3 4 6 9 11 13 14 17 19
10 10 9 9 8 6 4 4 5 5 7 10 13 13 13 15 14 15 14 15 13 15 6 4 5 5 4 3 4 3 3 4 1 1 2 3 5 7 9 11 14 17 18
11 9 9 7 7 6 5 4 6 8 10 13 14 15 17 17 16 15 15 13 14 15 13 7 4 6 5 5 5 4 3 3 2 2 2 4 6 7 9 12 15 17 19
12 11 9 8 7 6 6 5 6 7 12 16 18 18 19 20 18 16 15 14 13 11 11 12 10 7 6 6 6 5 4 4 5 4 4 5 7 8 11 14 16 17 21
14 14 12 10 9 8 8 7 6 8 11 14 20 22 22 15 15 15 13 13 12 11 11 11 10 10 9 7 9 9 8 8 7 7 7 7 8 10 12 14 17 20 24
17 15 15 13 12 11 10 9 9 10 11 11 15 18 23 21 14 13 12 12 13 13 12 12 12 11 10 10 8 10 11 11 11 10 10 10 10 12 14 15 17 19 24
21 19 18 16 14 14 13 13 12 12 15 12 10 14 19 20 22 17 16 17 17 16 18 17 15 14 13 13 14 12 13 14 14 14 13 13 14 14 16 16 18 20 23
25 24 23 21 19 17 18 17 16 15 15 17 14 14 17 22 22 25 17 16 17 19 20 21 19 18 19 18 17 16 15 16 17 17 16 16 16 16 16 18 19 24 24
30 27 26 26 25 24 23 23 21 21 20 22 21 20 19 20 21 25 28 26 23 21 22 22 23 25 23 24 23 20 19 20 20 19 19 19 19 17 18 20 22 25 27
36 34 32 31 30 29 28 27 25 25 24 24 24 25 24 23 23 24 28 29 29 29 29 25 29 30 34 33 32 29 26 22 22 21 20 20 20 20 19 20 20 24 29
35 35 34 34 33 32 32 32 30 29 27 28 27 27 27 26 27 27 29 30 31 32 30 30 30 32 36 26 32 32 28 24 23 21 19 19 19 20 20 19 20 22 28
33 32 31 30 32 33 32 32 32 31 29 29 28 27 27 27 27 28 32 34 37 35 34 35 28 32 34 33 40 38 33 29 24 21 18 18 18 18 20 20 22 24 23
33 31 31 32 31 32 31 31 33 32 31 28 27 26 27 25 28 26 30 32 34 36 37 35 35 28 31 37 39 34 32 30 22 19 17 18 18 21 17 19 19 23 24
36 35 34 34 33 31 30 31 32 30 29 29 29 28 28 27 26 26 27 29 33 34 40 37 41 37 36 32 29 26 25 25 21 17 16 16 16 17 19 21 21 22 23
32 35 37 37 35 33 31 30 30 29 28 26 26 27 27 28 29 35 35 37 36 35 40 41 40 37 28 29 29 27 23 21 19 16 14 15 17 17 17 20 17 20 24
27 29 31 32 32 32 30 30 30 30 33 33 31 29 30 30 32 29 34 31 33 35 41 37 38 39 37 32 29 25 22 21 21 18 15 15 15 15 16 18 19 19 23
26 26 26 26 28 28 30 31 32 35 35 34 33 34 33 30 28 25 21 23 29 27 28 32 32 30 29 25 27 24 22 22 21 17 16 16 15 16 17 18 18 20 26
27 27 26 26 28 26 30 31 32 33 33 31 31 31 31 32 32 28 25 27 26 30 33 32 34 30 27 25 25 25 24 24 23 20 19 17 16 17 17 18 21 23 24
30 29 29 28 28 27 27 29 29 31 32 33 31 31 32 32 31 30 29 31 30 28 30 31 32 29 27 27 26 24 25 23 22 22 20 18 17 17 17 18 19 22 26
34 33 33 33 32 31 31 31 31 31 31 31 32 31 30 32 31 31 30 29 29 30 30 30 30 30 30 27 26 24 23 24 25 18 19 19 17 18 18 18 20 24 28
37 37 37 36 36 35 32 33 34 33 32 32 32 32 32 30 31 34 34 34 33 31 30 30 31 29 30 27 25 25 24 23 24 19 16 20 19 19 18 19 21 25 26
40 41 41 41 41 39 39 39 38 37 36 34 33 33 34 33 33 33 34 35 34 30 29 29 29 31 30 26 24 23 22 22 21 16 16 21 16 19 17 18 22 23 25
40 41 42 43 44 44 42 40 39 39 38 38 37 35 35 35 34 34 36 38 38 34 29 31 32 33 29 23 19 20 21 21 24 21 18 19 15 14 15 18 19 20 24
40 40 41 41 43 44 44 42 42 40 42 40 38 38 37 37 37 36 37 38 39 38 35 33 31 30 26 21 17 19 17 20 23 24 16 16 12 13 18 14 16 18 21
Wind_Direction
146 144 141 141 144 141 146 147 149 155 157 158 160 164 338 330 328 332 335 347 164 170 165 149 123 127 116 123 118 110 114 102 71 59 44 38 32 25 23 21 12 6 360
153 154 151 152 152 150 152 154 160 192 203 208 229 281 306 315 320 322 325 327 331 236 217 210 188 175 160 158 142 146 137 140 94 53 42 33 26 22 18 13 9 2 358
163 162 162 163 164 168 174 195 239 284 294 298 300 305 306 307 309 313 316 318 329 314 267 222 215 214 222 181 151 153 160 165 129 37 24 22 18 10 9 7 3 359 356
179 176 174 173 173 183 205 253 275 285 294 299 301 303 304 304 307 307 310 312 318 320 323 254 232 225 227 211 187 181 179 175 162 342 356 3 1 1 1 1 358 356 356
199 197 189 189 182 188 203 235 275 287 295 298 302 303 303 304 306 308 307 308 310 312 320 323 257 232 232 226 216 208 202 198 217 250 296 326 338 345 349 351 351 352 351
216 213 211 203 203 209 213 229 258 283 293 299 301 303 303 303 304 305 306 307 306 308 312 314 324 315 241 241 239 242 248 245 236 246 274 302 319 327 336 340 343 345 344
231 221 211 225 232 230 224 226 255 276 293 298 300 300 302 303 299 299 302 304 305 305 308 312 312 314 316 254 242 245 247 260 257 254 264 281 301 314 324 330 334 336 336
241 229 227 236 236 246 241 245 255 275 282 292 300 306 303 307 307 305 296 298 302 306 306 307 307 304 303 307 294 248 251 262 271 267 272 280 292 302 311 319 325 330 330
247 244 246 247 248 249 253 250 254 258 279 280 274 293 305 308 310 311 314 307 306 307 307 306 306 305 300 296 299 288 262 261 267 268 273 279 286 293 303 310 318 323 327
251 251 253 253 253 257 261 265 264 267 270 280 285 280 285 295 298 300 311 316 315 311 309 309 309 307 305 301 295 287 284 265 264 268 269 274 280 285 295 303 311 317 321
255 254 254 257 259 262 266 268 269 269 274 277 280 288 289 288 290 291 295 297 300 304 305 306 309 311 309 304 302 296 284 278 269 266 270 275 281 287 296 305 311 316 318
261 260 260 261 263 265 266 268 268 269 271 275 279 282 283 286 289 290 291 294 295 299 301 302 306 308 304 304 302 302 299 284 282 276 273 276 279 284 289 296 304 312 313
265 264 262 263 265 266 267 268 268 268 269 272 274 279 282 283 285 287 292 293 295 299 300 299 300 304 300 310 307 305 301 294 287 282 271 270 274 282 289 297 307 317 317
268 266 265 265 267 267 268 267 267 267 268 270 271 274 278 281 285 286 287 292 294 296 297 298 303 303 299 301 304 306 304 301 294 285 273 270 273 280 292 299 310 319 319
271 270 268 269 271 270 269 270 270 269 268 267 269 271 274 280 284 288 289 289 291 294 295 299 303 307 303 306 301 302 303 303 299 290 283 284 288 290 296 301 314 316 318
271 270 270 271 273 272 272 271 271 271 269 268 269 271 274 277 282 286 288 288 287 290 293 297 298 301 301 301 300 301 304 307 304 299 300 299 297 292 304 304 318 319 322
279 275 272 273 273 273 272 271 270 269 268 270 271 270 270 272 276 283 287 286 285 285 291 294 296 296 304 302 305 305 305 311 311 304 304 300 296 300 304 311 312 319 319
289 286 282 279 277 279 279 275 272 273 275 275 276 275 278 284 286 290 292 284 284 282 289 286 288 292 291 299 304 306 309 314 317 316 312 307 302 300 303 308 314 318 326
294 294 294 288 285 289 283 280 283 278 277 277 276 277 279 279 281 289 286 284 289 294 295 297 301 301 300 303 305 308 310 315 319 317 312 309 306 306 308 312 311 319 317
296 296 293 293 295 294 292 290 288 286 285 283 279 279 280 283 286 288 287 286 290 296 297 297 297 300 302 304 303 302 304 312 315 317 314 311 307 311 312 314 316 319 324
296 295 296 297 296 296 296 296 296 292 289 287 287 285 287 287 288 286 286 288 289 290 293 296 297 298 298 300 297 301 303 307 313 313 311 307 307 310 313 318 320 323 326
292 293 294 293 293 293 294 295 295 294 294 293 293 292 291 289 290 290 291 292 294 293 294 294 294 292 293 296 299 298 302 306 305 309 307 309 310 310 317 322 325 326 328
289 290 291 291 290 291 293 294 294 293 293 294 294 294 294 296 296 293 292 292 292 292 291 294 291 292 295 294 297 297 297 300 304 309 308 306 312 312 320 324 327 330 332
290 289 288 288 288 289 291 290 289 290 291 291 292 293 294 295 297 297 296 295 294 294 294 294 292 293 293 297 293 294 295 303 310 306 307 307 309 313 319 327 332 334 335
292 291 290 288 286 286 288 289 288 288 288 288 289 291 291 294 295 297 295 293 292 294 298 298 295 294 295 293 291 295 291 289 299 300 304 309 307 316 321 327 332 338 341
294 290 292 291 288 288 287 287 285 287 285 286 286 288 290 292 294 294 293 292 290 293 294 296 298 298 296 292 284 289 284 282 294 299 292 306 297 309 314 334 340 341 341